User: anonymous   Login
Location: Tyler Bend Campground
(35.9875°N, 92.7606°W)
Time: 12:50:09
(UTC-05:00)
Language:

CZ-2C R/B - Orbit

View from above orbital plane
View from above orbital plane
View from above satellite
View from above satellite

Ground track
Ground track

The orbit data is extracted from the following two-line orbital elements,

1 36089U 09061B   15186.11704400  .00000150  00000-0  48609-4 0  9997
2 36089 098.0701 208.4258 0083646 081.5917 315.1409 14.49462225298405
Epoch (UTC): 05 July 2015 02:48:32
Eccentricity: 0.0083646
inclination: 98.0701°
perigee height: 668 km
apogee height: 787 km
right ascension of ascending node: 208.4258°
argument of perigee: 81.5917°
revolutions per day: 14.49462225
mean anomaly at epoch: 315.1409°
orbit number at epoch: 29840

The dashed part of the orbit path shows where the satellite is in the earth's shadow,  

DLR